TimeCDT,TemperatureF,Dew PointF,Humidity,Sea Level PressureIn,VisibilityMPH,Wind Direction,Wind SpeedMPH,Gust SpeedMPH,PrecipitationIn,Events,Conditions,WindDirDegrees,DateUTC
12:52 AM,68.0,60.1,76,29.97,10.0,Calm,Calm,-,N/A,,Scattered Clouds,0,2013-08-08 05:52:00
1:52 AM,66.9,62.1,84,29.97,10.0,Calm,Calm,-,N/A,,Overcast,0,2013-08-08 06:52:00
2:52 AM,68.0,60.1,76,29.96,10.0,NNE,4.6,-,N/A,,Partly Cloudy,20,2013-08-08 07:52:00
3:44 AM,66.2,60.8,83,29.98,10.0,North,3.5,-,N/A,,Overcast,360,2013-08-08 08:44:00
3:52 AM,66.9,60.1,79,29.96,10.0,Calm,Calm,-,N/A,,Overcast,0,2013-08-08 08:52:00
4:06 AM,66.2,59.0,78,29.97,10.0,NE,3.5,-,N/A,,Mostly Cloudy,50,2013-08-08 09:06:00
4:52 AM,64.9,59.0,81,29.96,10.0,Calm,Calm,-,N/A,,Clear,0,2013-08-08 09:52:00
5:52 AM,64.0,59.0,84,29.95,10.0,Calm,Calm,-,N/A,,Partly Cloudy,0,2013-08-08 10:52:00
6:52 AM,64.9,60.1,84,29.98,10.0,Calm,Calm,-,N/A,,Mostly Cloudy,0,2013-08-08 11:52:00
7:01 AM,64.4,60.8,88,30.00,10.0,Calm,Calm,-,N/A,,Mostly Cloudy,0,2013-08-08 12:01:00
7:41 AM,68.0,62.6,83,30.00,10.0,ENE,5.8,-,N/A,,Mostly Cloudy,60,2013-08-08 12:41:00
7:52 AM,68.0,62.1,81,29.99,10.0,ENE,5.8,-,N/A,,Mostly Cloudy,60,2013-08-08 12:52:00
8:52 AM,71.1,62.1,73,29.99,10.0,East,9.2,-,N/A,,Clear,80,2013-08-08 13:52:00
9:52 AM,73.0,61.0,66,30.00,10.0,East,10.4,-,N/A,,Partly Cloudy,80,2013-08-08 14:52:00
10:52 AM,75.0,61.0,62,30.02,10.0,East,6.9,-,N/A,,Clear,90,2013-08-08 15:52:00
11:52 AM,77.0,63.0,62,30.00,10.0,ENE,9.2,-,N/A,,Clear,60,2013-08-08 16:52:00
12:52 PM,78.1,63.0,60,29.98,10.0,ENE,4.6,-,N/A,,Clear,60,2013-08-08 17:52:00
1:52 PM,79.0,62.1,56,29.97,10.0,East,8.1,-,N/A,,Mostly Cloudy,90,2013-08-08 18:52:00
2:52 PM,79.0,62.1,56,29.96,10.0,ENE,5.8,-,N/A,,Mostly Cloudy,70,2013-08-08 19:52:00
3:52 PM,80.1,62.1,54,29.96,10.0,NNE,5.8,-,N/A,,Scattered Clouds,30,2013-08-08 20:52:00
4:52 PM,81.0,61.0,50,29.96,10.0,NNE,5.8,-,N/A,,Partly Cloudy,20,2013-08-08 21:52:00
5:52 PM,80.1,60.1,50,29.97,10.0,North,5.8,-,N/A,,Partly Cloudy,360,2013-08-08 22:52:00
6:52 PM,78.1,60.1,54,29.96,10.0,NNE,4.6,-,N/A,,Partly Cloudy,30,2013-08-08 23:52:00
7:52 PM,73.9,64.0,71,29.97,10.0,East,3.5,-,N/A,,Clear,100,2013-08-09 00:52:00
8:52 PM,75.0,62.1,64,29.97,10.0,NNE,3.5,-,N/A,,Clear,30,2013-08-09 01:52:00
9:52 PM,70.0,64.0,81,29.98,10.0,Calm,Calm,-,N/A,,Clear,0,2013-08-09 02:52:00
10:52 PM,66.9,64.0,90,29.99,10.0,Calm,Calm,-,N/A,,Clear,0,2013-08-09 03:52:00
11:52 PM,66.0,63.0,90,30.00,10.0,Calm,Calm,-,N/A,,Clear,0,2013-08-09 04:52:00